[Iaude] MPEC H04: 2024 GK6 [a=1.18,e=0.21,i=11.3,H=26.8]
    mpec at cfa.harvard.edu 
    mpec at cfa.harvard.edu
       
    Tue Apr 16 07:53:42 EDT 2024
    
    
  
M.P.E.C. 2024-H04                                Issued 2024 April 16, 11:51 UT
     The Minor Planet Electronic Circulars contain information on unusual
         minor planets, routine data on comets and natural satellites,
         and occasional editorial announcements.  They are published
    on behalf of Division F of the International Astronomical Union by the
          Minor Planet Center, Smithsonian Astrophysical Observatory,
                          Cambridge, MA 02138, U.S.A.
			  
             Prepared using the Tamkin Foundation Computer Network
                              MPC at CFA.HARVARD.EDU
            URL https://www.minorplanetcenter.net/    ISSN 1523-6714
                                    2024 GK6                                    
Observations:
     K24G06K*KC2024 04 14.85964 12 28 12.32 +18 07 29.0          18.7 GXEH004L51
     K24G06K KC2024 04 14.86089 12 28 12.78 +18 08 20.1          19.5 GXEH004L51
     K24G06K KC2024 04 14.86214 12 28 13.25 +18 09 12.2          19.5 GXEH004L51
     K24G06K KC2024 04 14.88711112 28 34.452+18 25 30.54         19.1 GVEH004J95
     K24G06K KC2024 04 14.88840912 28 35.014+18 26 24.36         19.8 GVEH004J95
     K24G06K KC2024 04 14.89016512 28 35.774+18 27 36.76         19.8 GVEH004J95
     K24G06K KC2024 04 14.89328612 28 37.128+18 29 46.75         19.9 GVEH004J95
     K24G06K KC2024 04 14.89584 12 28 27.06 +18 32 18.7          19.5 GXEH004L51
     K24G06K KC2024 04 14.89863 12 28 28.16 +18 34 13.2          20.1 GXEH004L51
     K24G06K KC2024 04 14.90144 12 28 29.28 +18 36 08.7          19.8 GXEH004L51
     K24G06K KB2024 04 14.90462512 28 42.48 +18 38 19.9          19.3 GXEH004I93
     K24G06K KB2024 04 14.90771412 28 43.71 +18 40 28.7          20.1 GXEH004I93
     K24G06K KB2024 04 14.91079312 28 45.04 +18 42 35.7          19.9 GXEH004I93
     K24G06K IC2024 04 14.91593512 28 42.25 +18 46 08.2          19.4 GVEH004L01
     K24G06K IC2024 04 14.91749912 28 42.83 +18 47 13.3          19.6 GVEH004L01
     K24G06K KC2024 04 14.91916 12 28 44.59 +18 48 30.6          19.5 GXEH004K83
     K24G06K pC2024 04 14.91941412 28 43.63 +18 48 31.5          19.7 GVEH004L01
     K24G06K KC2024 04 14.92590 12 28 47.32 +18 53 10.5          19.5 GXEH004K83
     K24G06K KC2024 04 14.93686 12 28 51.92 +19 00 43.8                VEH004104
     K24G06K KC2024 04 14.94245 12 28 54.21 +19 04 36.4          19.1 GVEH004104
     K24G06K KC2024 04 14.94805 12 28 56.49 +19 08 28.7                VEH004104
     K24G06K KB2024 04 15.01555312 29 46.490+20 02 26.23         19.1 VZEH004Y05
     K24G06K KB2024 04 15.02314012 29 49.598+20 07 47.35         20.6 VZEH004Y05
     K24G06K KB2024 04 15.06136 12 29 46.03 +20 26 56.3                ZEH004106
     K24G06K KB2024 04 15.06525 12 29 47.78 +20 29 38.4                ZEH004106
     K24G06K KB2024 04 15.06913 12 29 49.76 +20 32 20.9                ZEH004106
     K24G06K KB2024 04 15.07302 12 29 51.58 +20 35 03.6                ZEH004106
     K24G06K KC2024 04 15.15013312 30 59.39 +21 31 10.7          19.7 GVEH004H21
     K24G06K KC2024 04 15.15206312 31 00.22 +21 32 33.7          20.0 GVEH004H21
     K24G06K KC2024 04 15.15399212 31 01.08 +21 33 56.6          19.8 GVEH004H21
     K24G06K KC2024 04 15.15592012 31 01.93 +21 35 19.8          19.9 GVEH004H21
     K24G06K KC2024 04 15.15784912 31 02.77 +21 36 43.1          20.0 GVEH004H21
     K24G06K mC2024 04 15.16245212 31 14.214+21 40 28.02         20.13GVEH004I52
     K24G06K mC2024 04 15.16266812 31 14.308+21 40 37.24         19.80GVEH004I52
     K24G06K mC2024 04 15.16288412 31 14.423+21 40 45.95         20.34GVEH004I52
     K24G06K mC2024 04 15.16310012 31 14.560+21 40 56.14         19.90GVEH004I52
     K24G06K KC2024 04 15.77369 12 37 41.73 +29 11 53.0          19.4 GXEH004L51
     K24G06K KC2024 04 15.77639 12 37 43.36 +29 13 57.9          19.2 GXEH004L51
     K24G06K KC2024 04 15.77918 12 37 45.01 +29 16 07.1          19.8 GXEH004L51
     K24G06K KB2024 04 15.90435012 39 11.89 +30 52 18.8          19.9 GXEH004958
     K24G06K KB2024 04 15.90829412 39 14.28 +30 55 22.0          19.9 GXEH004958
     K24G06K 1C2024 04 15.91012 12 39 09.81 +30 56 02.7          20.6 VXEH004033
     K24G06K 1C2024 04 15.91092 12 39 10.31 +30 56 40.5          20.4 VXEH004033
     K24G06K KB2024 04 15.91220612 39 16.61 +30 58 24.2          19.7 GXEH004958
     K24G06K 1C2024 04 15.92266 12 39 17.43 +31 05 42.9          20.3 VXEH004033
     K24G06K 1C2024 04 15.92307 12 39 17.66 +31 06 02.1          20.0 VXEH004033
     K24G06K 1C2024 04 15.92398 12 39 18.23 +31 06 44.8          20.1 VXEH004033
Observer details:
033 Karl Schwarzschild Observatory, Tautenburg.  Observers S. Melnikov, C.
    Hogner, F. Ludwig, M. Hartmann, B. Stecklum.  Measurer B. Stecklum.
    1.34-m f/3 Schmidt + CCD.
104 San Marcello Pistoiese.  Observers P. Bacci, M. Maestripieri.  Measurer P.
    Bacci.  0.60-m f/4.0 reflector + CCD.
106 Crni Vrh.  Observer H. Mikuz.  0.60-m f/3.3 reflector + CMO.
958 Observatoire de Dax.  Observer P. Dupouy.  0.50-m f/4.5 Reflector + CMO.
H21 Astronomical Research Observatory, Westfield.  Observer R. Holmes.
    Measurers T. Linder, R. Holmes, L. Horn.  0.76-m f/3.0 astrograph + CCD.
I52 Steward Observatory, Mt. Lemmon Station.  Observers J. B. Fazekas, T.
    Beuden.  Measurers T. Beuden, V. F. Carvajal, D. Fay, J. B. Fazekas, D. C.
    Fuls, A. R. Gibbs, A. D. Grauer, H. Groeller, J. K. Hogan, R. A. Kowalski,
    S. M. Larson, G. J. Leonard, D. Rankin, R. L. Seaman, F. C. Shelly, K. W.
    Wierzchos.  1.0-m prime focus + CCD.
I93 St Pardon de Conques.  Observer F. Losse.  0.40-m f/3.7 reflector + CCD.
J95 Great Shefford.  Observer P. Birtwhistle.  0.41-m f/6.3 Schmidt-Cassegrain
    + CCD.
K83 Beppe Forti Astronomical Observatory, Montelupo.  Observers M. Tombelli,
    F. Cheli, A. Squilloni, M. Iozzi.  Measurers M. Tombelli, F. Bernardi, F.
    Cheli, M. Iozzi, A. Squilloni.  0.40-m f/8 Ritchey-Chretien + CCD.
L01 Visnjan Observatory, Tican.  Observer K. Korlevic.  1.0-m f/2.9 reflector
    + CCD.
L51 MARGO, Nauchnyi.  Observer G. Borisov.  0.50-m f/1.9 reflector + CCD.
Y05 SONEAR Wykrota-CEAMIG, Serra da Piedade.  Observers C. Jacques, A.
    Caetano, E. Pimentel.  Measurer C. Jacques.  0.45-m f/2.9 reflector + CMO.
Orbital elements:
2024 GK6                                                 Earth MOID = 0.0185 AU
Epoch 2024 Mar. 31.0 TT = JDT 2460400.5                 Veres                   
M 305.85452              (2000.0)            P               Q                  
n   0.77312654     Peri.   64.98741     -0.05079777     +0.99589014             
a   1.1757157      Node   202.48665     -0.97235283     -0.06645224             
e   0.2143465      Incl.   11.30605     -0.22792447     +0.06153802             
P   1.27           H   26.85          G   0.15           U   7                  
Residuals in seconds of arc
240414 L51  0.4+  0.1-    240414 L01  0.9-  0.3-    240415 I52  0.1-  0.1+
240414 L51  0.2-  0.3-    240414 K83  0.2+  0.0     240415 I52  0.2-  0.1-
240414 L51  0.7-  0.4+    240414 104  0.3+  0.4+    240415 I52  0.0   0.7-
240414 J95  0.2+  0.2-    240414 104  0.2+  0.9+    240415 I52  0.6+  0.1+
240414 J95  0.2+  0.1-    240414 104  0.3-  0.6+    240415 L51  1.0-  0.2+
240414 J95  0.2+  0.6-    240415 Y05  1.4-  1.1-    240415 L51  0.3-  0.3+
240414 J95  0.2+  0.0     240415 Y05  0.1+  1.4-    240415 L51  0.0   0.5+
240414 L51  1.4+  0.9+    240415 106  1.4+  0.9+    240415 958  0.2-  0.1-
240414 L51  0.8+  0.5+    240415 106  0.3-  0.4+    240415 958  0.2+  0.4-
240414 L51  0.3+  0.3+    240415 106  1.1+  0.6+    240415 033  0.0   0.4-
240414 I93  0.4+  0.5+    240415 106  0.0   0.5+    240415 033  0.2+  0.3+
240414 I93  0.4-  1.0+    240415 H21  0.3+  0.3+    240415 958  0.2+  0.1-
240414 I93  0.4+  0.1+    240415 H21  0.0   0.1+    240415 033  0.0   0.3-
240414 L01  0.2-  0.5+    240415 H21  0.1+  0.0     240415 033  0.3-  0.0
240414 L01  1.1-  0.9+    240415 H21  0.0   0.1+    240415 033  0.1-  0.6+
240414 K83  0.5+  0.3-    240415 H21  0.1-  0.3+
Ephemeris:
2024 GK6                 a,e,i = 1.18, 0.21, 11                  q = 0.9237
Date    TT    R. A. (2000) Decl.     Delta      r    Elong.  Phase     V
2024 03 17    11 48 33.9 -38 12 03   0.1548  1.1187   140.4    34.5    24.5
...
2024 04 01    11 51 31.3 -33 27 04   0.07838 1.0670   148.8    29.0    22.7
...
2024 04 09    12 01 19.5 -20 08 15   0.04160 1.0405   158.9    20.3    21.0
...
2024 04 15    12 29 27.3 +19 46 53   0.02171 1.0214   146.5    32.8    20.0
2024 04 16    12 40 14.2 +32 07 06   0.02058 1.0183   135.7    43.5    20.1
2024 04 17    12 55 30.2 +45 04 17   0.02053 1.0153   123.5    55.5    20.5
...
2024 04 23    20 25 16.4 +78 06 11   0.03667 0.9976    76.6   101.3    23.4
...
2024 05 01    22 51 05.9 +64 07 38   0.07091 0.9761    61.8   114.5    25.5
...
2024 05 16    23 29 43.6 +55 07 54   0.1387  0.9443    57.7   115.2    26.9
M. P. C. Staff               (C) Copyright 2024 MPC           M.P.E.C. 2024-H04
    
    
More information about the Iaude
mailing list